Prescott, AZ

9:23 AM MST on October 14, 2019 (GMT -0700)
Love

Weather History for KPRC - August, 2019

Change the Weather History Date:

Friday, August 16, 2019

  Actual Average Record
Temperature  
Mean Temperature 78 °F 74 °F  
Max Temperature 93 °F 87 °F 96 °F (2015)
Min Temperature 63 °F 61 °F 49 °F (1987)
Degree Days  
Heating Degree Days 0    
Month to date heating degree days 0  
Since 1 July heating degree days 0  
Cooling Degree Days 13    
Month to date cooling degree days 202  
Year to date cooling degree days 770  
Growing Degree Days 28 (Base 50)    
Moisture  
Dew Point 34 °F    
Average Humidity 21    
Maximum Humidity 34    
Minimum Humidity 10    
Precipitation  
Precipitation 0.00 in 0.09 in 0.52 in (1966)
Month to date precipitation 0.30 1.44  
Year to date precipitation 8.11 8.48  
Sea Level Pressure  
Sea Level Pressure 29.85 in    
Wind  
Wind Speed 9 mph (SSW)    
Max Wind Speed 24 mph    
Max Gust Speed 34 mph    
Visibility 10 miles    
Events      
T = Trace of Precipitation, MM = Missing Value Source: NWS Daily Summary

Daily Weather History Graph

Daily Weather History Graph

Search for Another Location

Airport or City:

Astronomy

Aug. 16, 2019 Rise Set
Actual Time 5:50 AM MST 7:16 PM MST
Civil Twilight 5:24 AM MST 7:43 PM MST
Nautical Twilight 4:52 AM MST 8:14 PM MST
Astronomical Twilight 4:18 AM MST 8:48 PM MST
Moon 8:19 PM MST (8/16) 6:45 AM MST (8/16)
Length of Visible Light 14h 18m
Length of Day
13h 25m
Full, 99% of the Moon is Illuminated
Aug 16
Full
Aug 23
Last Quarter
Aug 30
New
Sep 5
First Quarter
Sep 13
Full

Hourly Weather History & Observations

Time (MST) Temp. Dew Point Humidity Pressure Visibility Wind Dir Wind Speed Gust Speed Precip Events Conditions
12:53 AM 69.1 °F 32.0 °F 25% 29.86 in 10.0 mi Calm Calm - N/A   Clear
1:53 AM 66.9 °F 30.9 °F 26% 29.85 in 10.0 mi South 9.2 mph - N/A   Clear
2:53 AM 72.0 °F 27.0 °F 19% 29.85 in 10.0 mi SSW 10.4 mph - N/A   Clear
3:53 AM 69.1 °F 30.0 °F 23% 29.86 in 10.0 mi SSW 10.4 mph - N/A   Clear
4:53 AM 66.9 °F 30.9 °F 26% 29.87 in 10.0 mi SSW 5.8 mph - N/A   Clear
5:53 AM 63.0 °F 34.0 °F 34% 29.89 in 10.0 mi South 6.9 mph - N/A   Clear
6:53 AM 68.0 °F 36.0 °F 31% 29.91 in 10.0 mi South 6.9 mph - N/A   Clear
7:53 AM 77.0 °F 41.0 °F 28% 29.91 in 10.0 mi South 5.8 mph - N/A   Clear
8:53 AM 84.9 °F 34.0 °F 16% 29.91 in 10.0 mi Calm Calm - N/A   Clear
9:53 AM 89.1 °F 30.0 °F 12% 29.89 in 10.0 mi West 9.2 mph 17.3 mph N/A   Clear
10:53 AM 90.0 °F 27.0 °F 10% 29.88 in 10.0 mi SSW 12.7 mph 19.6 mph N/A   Clear
11:53 AM 91.0 °F 27.0 °F 10% 29.88 in 10.0 mi SSW 11.5 mph 19.6 mph N/A   Clear
12:53 PM 91.0 °F 30.0 °F 11% 29.85 in 10.0 mi Variable 4.6 mph - N/A   Partly Cloudy
1:53 PM 93.0 °F 28.9 °F 10% 29.84 in 10.0 mi SSW 13.8 mph 26.5 mph N/A   Partly Cloudy
2:53 PM 91.0 °F 32.0 °F 12% 29.82 in 10.0 mi SSW 15.0 mph 25.3 mph N/A   Partly Cloudy
3:53 PM 91.0 °F 35.1 °F 14% 29.81 in 10.0 mi South 11.5 mph 26.5 mph N/A   Clear
4:53 PM 90.0 °F 36.0 °F 15% 29.80 in 10.0 mi SSW 11.5 mph 29.9 mph N/A   Partly Cloudy
5:53 PM 89.1 °F 36.0 °F 15% 29.80 in 10.0 mi SSW 16.1 mph 23.0 mph N/A   Clear
6:53 PM 86.0 °F 35.1 °F 16% 29.80 in 10.0 mi SW 9.2 mph - N/A   Scattered Clouds
7:53 PM 82.0 °F 36.0 °F 19% 29.79 in 10.0 mi SSW 5.8 mph - N/A   Clear
8:53 PM 75.0 °F 42.1 °F 31% 29.81 in 10.0 mi SSW 5.8 mph - N/A   Clear
9:53 PM 73.9 °F 39.0 °F 28% 29.81 in 10.0 mi SSW 6.9 mph - N/A   Clear
10:53 PM 70.0 °F 39.0 °F 32% 29.82 in 10.0 mi SSW 8.1 mph - N/A   Clear
11:53 PM 69.1 °F 36.0 °F 30% 29.82 in 10.0 mi South 9.2 mph - N/A   Clear